When you browse on this site, cookies collect data to enhance your experience and personalize the content and advertising you see.
Visit our Privacy Policy to learn more. By continuing to use the site, you agree to this use of cookies and data.
  • In Schweiz
  • Länderverzeichnis
  • Für 7 Tage
  • Wassertemperatur
  • Wetterkarte
  • Widgets
  • user-avatar
    Anmelden

    Stündliche Wetter La Massana

    Heute, 18 Oktober, Freitag

    Zeit Temperatur Niederschläge Wind Luftdruck Luftfeuchtigkeit
    00:00 +5°C° 0 mm 1 m/S 608 mmHg 85%
    01:00 +5°C° 0 mm 1 m/S 608 mmHg 83%
    02:00 +4°C° 0 mm 2 m/S 608 mmHg 82%
    03:00 +4°C° 0 mm 2 m/S 608 mmHg 80%
    04:00 +4°C° 0 mm 2 m/S 608 mmHg 82%
    05:00 +5°C° 0 mm 2 m/S 608 mmHg 85%
    06:00 +6°C° 0 mm 1 m/S 609 mmHg 87%
    07:00 +8°C° 0 mm 1 m/S 610 mmHg 81%
    08:00 +9°C° 0 mm 1 m/S 610 mmHg 76%
    09:00 +11°C° 0 mm 1 m/S 611 mmHg 70%
    10:00 +12°C° 0 mm 1 m/S 611 mmHg 67%
    11:00 +12°C° 0 mm 2 m/S 612 mmHg 65%
    12:00 +13°C° 0 mm 2 m/S 612 mmHg 62%
    13:00 +13°C° 0 mm 2 m/S 611 mmHg 65%
    14:00 +12°C° 0 mm 2 m/S 611 mmHg 67%
    15:00 +12°C° 0 mm 2 m/S 610 mmHg 69%
    16:00 +9°C° 0 mm 2 m/S 610 mmHg 77%
    17:00 +8°C° 0 mm 2 m/S 609 mmHg 84%
    18:00 +7°C° 0 mm 2 m/S 608 mmHg 91%
    19:00 +7°C° 0 mm 2 m/S 608 mmHg 90%
    20:00 +7°C° 0 mm 2 m/S 608 mmHg 88%
    21:00 +7°C° 0 mm 2 m/S 608 mmHg 87%
    22:00 +7°C° 0.1 mm 2 m/S 607 mmHg 88%
    23:00 +7°C° 0.1 mm 2 m/S 607 mmHg 90%

    Morgen, 19 Oktober, Samstag

    Zeit Temperatur Niederschläge Wind Luftdruck Luftfeuchtigkeit
    00:00 +7°C° 0.1 mm 2 m/S 607 mmHg 91%
    01:00 +7°C° 0.1 mm 2 m/S 607 mmHg 92%
    02:00 +6°C° 0.1 mm 2 m/S 606 mmHg 92%
    03:00 +6°C° 0.1 mm 2 m/S 606 mmHg 93%
    04:00 +6°C° 0 mm 2 m/S 606 mmHg 93%
    05:00 +5°C° 0 mm 2 m/S 605 mmHg 93%
    06:00 +5°C° 0 mm 2 m/S 605 mmHg 94%
    07:00 +6°C° 0 mm 2 m/S 606 mmHg 88%
    08:00 +7°C° 0 mm 2 m/S 606 mmHg 82%
    09:00 +9°C° 0 mm 3 m/S 607 mmHg 76%
    10:00 +9°C° 0 mm 3 m/S 607 mmHg 71%
    11:00 +10°C° 0 mm 3 m/S 607 mmHg 67%
    12:00 +11°C° 0 mm 3 m/S 607 mmHg 62%
    13:00 +10°C° 0.1 mm 3 m/S 607 mmHg 66%
    14:00 +10°C° 0.1 mm 3 m/S 606 mmHg 69%
    15:00 +10°C° 0.1 mm 3 m/S 606 mmHg 73%
    16:00 +9°C° 0.2 mm 3 m/S 605 mmHg 79%
    17:00 +8°C° 0.2 mm 3 m/S 604 mmHg 86%
    18:00 +7°C° 0.2 mm 3 m/S 604 mmHg 92%
    19:00 +7°C° 0.3 mm 3 m/S 604 mmHg 92%
    20:00 +6°C° 0.3 mm 4 m/S 604 mmHg 92%
    21:00 +7°C° 0.3 mm 4 m/S 604 mmHg 92%
    22:00 +6°C° 0.1 mm 4 m/S 604 mmHg 92%
    23:00 +6°C° 0.1 mm 4 m/S 603 mmHg 91%

    übermorgen, 20 Oktober, Sonntag

    Zeit Temperatur Niederschläge Wind Luftdruck Luftfeuchtigkeit
    00:00 +5°C° 0.1 mm 3 m/S 603 mmHg 90%
    01:00 +5°C° 0 mm 3 m/S 602 mmHg 90%
    02:00 +5°C° 0 mm 4 m/S 602 mmHg 89%
    03:00 +5°C° 0 mm 4 m/S 602 mmHg 89%
    04:00 +5°C° 0.8 mm 4 m/S 602 mmHg 90%
    05:00 +5°C° 0.8 mm 4 m/S 602 mmHg 91%
    06:00 +5°C° 0.8 mm 4 m/S 602 mmHg 93%
    07:00 +5°C° 1 mm 4 m/S 602 mmHg 89%
    08:00 +5°C° 1 mm 4 m/S 603 mmHg 86%
    09:00 +5°C° 1 mm 4 m/S 603 mmHg 83%
    10:00 +6°C° 0.1 mm 4 m/S 604 mmHg 73%
    11:00 +7°C° 0.1 mm 4 m/S 605 mmHg 63%
    12:00 +10°C° 0.1 mm 4 m/S 605 mmHg 53%
    13:00 +9°C° 0 mm 3 m/S 606 mmHg 51%
    14:00 +9°C° 0 mm 3 m/S 606 mmHg 50%
    15:00 +8°C° 0 mm 2 m/S 606 mmHg 48%
    16:00 +6°C° 0 mm 2 m/S 606 mmHg 60%
    17:00 +5°C° 0 mm 1 m/S 606 mmHg 73%
    18:00 +3°C° 0 mm 1 m/S 606 mmHg 86%
    19:00 +3°C° 0 mm 1 m/S 606 mmHg 87%
    20:00 +2°C° 0 mm 1 m/S 607 mmHg 88%
    21:00 +1°C° 0 mm 0 m/S 607 mmHg 88%
    22:00 +2°C° 0 mm 1 m/S 607 mmHg 88%
    23:00 +1°C° 0 mm 1 m/S 607 mmHg 87%

    21 Oktober, Montag

    Zeit Temperatur Niederschläge Wind Luftdruck Luftfeuchtigkeit
    00:00 +1°C° 0 mm 1 m/S 607 mmHg 86%
    01:00 +1°C° 0 mm 1 m/S 607 mmHg 84%
    02:00 +1°C° 0 mm 1 m/S 607 mmHg 81%
    03:00 +1°C° 0 mm 1 m/S 608 mmHg 79%
    04:00 +1°C° 0 mm 1 m/S 608 mmHg 78%
    05:00 +2°C° 0 mm 1 m/S 608 mmHg 77%
    06:00 +1°C° 0 mm 0 m/S 608 mmHg 76%
    07:00 +2°C° 0 mm 0 m/S 609 mmHg 70%
    08:00 +5°C° 0 mm 1 m/S 610 mmHg 64%
    09:00 +7°C° 0 mm 1 m/S 611 mmHg 58%
    10:00 +7°C° 0 mm 1 m/S 611 mmHg 54%
    11:00 +8°C° 0 mm 1 m/S 611 mmHg 51%
    12:00 +8°C° 0 mm 2 m/S 611 mmHg 47%
    13:00 +8°C° 0 mm 1 m/S 611 mmHg 53%
    14:00 +8°C° 0 mm 1 m/S 610 mmHg 58%
    15:00 +7°C° 0 mm 1 m/S 610 mmHg 64%
    16:00 +6°C° 0.3 mm 1 m/S 609 mmHg 72%
    17:00 +5°C° 0.3 mm 1 m/S 609 mmHg 81%
    18:00 +4°C° 0.3 mm 1 m/S 609 mmHg 89%
    19:00 +4°C° 0.2 mm 1 m/S 609 mmHg 91%
    20:00 +4°C° 0.2 mm 1 m/S 609 mmHg 92%
    21:00 +4°C° 0.2 mm 1 m/S 609 mmHg 93%
    22:00 +4°C° 0.3 mm 1 m/S 609 mmHg 94%
    23:00 +4°C° 0.3 mm 1 m/S 609 mmHg 94%

    22 Oktober, Dienstag

    Zeit Temperatur Niederschläge Wind Luftdruck Luftfeuchtigkeit
    00:00 +4°C° 0.3 mm 1 m/S 609 mmHg 94%
    01:00 +4°C° 0.5 mm 1 m/S 609 mmHg 95%
    02:00 +4°C° 0.5 mm 1 m/S 609 mmHg 95%
    03:00 +5°C° 0.5 mm 1 m/S 608 mmHg 96%
    04:00 +5°C° 1.7 mm 1 m/S 608 mmHg 96%
    05:00 +5°C° 1.7 mm 1 m/S 608 mmHg 96%
    06:00 +4°C° 1.7 mm 2 m/S 607 mmHg 96%
    07:00 +4°C° 1.3 mm 2 m/S 607 mmHg 96%
    08:00 +4°C° 1.3 mm 2 m/S 607 mmHg 96%
    09:00 +4°C° 1.3 mm 2 m/S 607 mmHg 95%
    10:00 +4°C° 2.2 mm 2 m/S 607 mmHg 96%
    11:00 +4°C° 2.2 mm 2 m/S 607 mmHg 97%
    12:00 +5°C° 2.2 mm 1 m/S 607 mmHg 98%
    13:00 +6°C° 0.8 mm 1 m/S 607 mmHg 97%
    14:00 +6°C° 0.8 mm 1 m/S 607 mmHg 96%
    15:00 +7°C° 0.8 mm 1 m/S 607 mmHg 96%
    16:00 +6°C° 0 mm 1 m/S 607 mmHg 96%
    17:00 +6°C° 0 mm 1 m/S 607 mmHg 95%
    18:00 +6°C° 0 mm 1 m/S 607 mmHg 95%
    19:00 +6°C° 0.5 mm 1 m/S 607 mmHg 95%
    20:00 +7°C° 0.5 mm 1 m/S 607 mmHg 95%
    21:00 +7°C° 0.5 mm 1 m/S 607 mmHg 95%
    22:00 +6°C° 1.4 mm 2 m/S 607 mmHg 95%
    23:00 +6°C° 1.4 mm 2 m/S 607 mmHg 95%

    23 Oktober, Mittwoch

    Zeit Temperatur Niederschläge Wind Luftdruck Luftfeuchtigkeit
    00:00 +6°C° 1.4 mm 2 m/S 606 mmHg 95%
    01:00 +6°C° 1.5 mm 2 m/S 606 mmHg 95%
    02:00 +6°C° 1.5 mm 2 m/S 605 mmHg 95%
    03:00 +6°C° 1.5 mm 2 m/S 605 mmHg 95%
    04:00 +7°C° 3 mm 2 m/S 605 mmHg 95%
    05:00 +7°C° 3 mm 2 m/S 604 mmHg 96%
    06:00 +7°C° 3 mm 2 m/S 604 mmHg 96%
    07:00 +7°C° 1.7 mm 2 m/S 604 mmHg 96%
    08:00 +8°C° 1.7 mm 2 m/S 604 mmHg 95%
    09:00 +8°C° 1.7 mm 3 m/S 604 mmHg 94%
    10:00 +8°C° 2.4 mm 3 m/S 603 mmHg 95%
    11:00 +8°C° 2.4 mm 3 m/S 603 mmHg 95%
    12:00 +8°C° 2.4 mm 3 m/S 602 mmHg 96%
    13:00 +8°C° 9.9 mm 2 m/S 602 mmHg 96%
    14:00 +7°C° 9.9 mm 2 m/S 602 mmHg 97%
    15:00 +7°C° 9.9 mm 1 m/S 601 mmHg 98%
    16:00 +6°C° 1.7 mm 1 m/S 601 mmHg 96%
    17:00 +6°C° 1.7 mm 1 m/S 601 mmHg 95%
    18:00 +4°C° 1.7 mm 2 m/S 601 mmHg 93%
    19:00 +3°C° 0 mm 2 m/S 601 mmHg 93%
    20:00 +3°C° 0 mm 2 m/S 602 mmHg 92%
    21:00 +3°C° 0 mm 2 m/S 602 mmHg 92%
    22:00 +3°C° 0 mm 2 m/S 602 mmHg 92%
    23:00 +2°C° 0 mm 2 m/S 602 mmHg 91%
    Mehr zeigen